Regional Weather Roundup
Issued by NWS

Home | Current Version | Previous Version | Text Only | Print | Product List | Glossary On
Versions: 1 2 3 4 5 6 7 8 9 10 11 12 13 14 15 16 17 18 19 20 21 22 23 24 25 26 27 28 29 30 31 32 33 34 35 36 37 38 39 40 41 42 43 44 45 46 47 48 49 50
000
ASHW40 PHFO 090032
RWRHI

WEATHER ROUNDUP FOR HAWAII
NATIONAL WEATHER SERVICE HONOLULU HI
200 PM HST THU DEC 08 2016

THIS IS AN AUTOMATED REPORT THAT HAS NOT BEEN QUALITY CONTROLLED.

NOTE..."FAIR" INDICATES FEW OR NO CLOUDS BELOW 12,000 FEET WITH NO
SIGNIFICANT WEATHER AND/OR OBSTRUCTIONS TO VISIBILITY.

* - THESE SITES REPORT LIMITED FIELDS

HIZ001>004-090100-
KAUAI-NIIHAU-

CITY           SKY/WX    TMP DP  RH WIND       PRES   REMARKS
LIHUE APT      LGT RAIN  73  68  84 NW3       29.90S
PORT ALLEN*      N/A     72 N/A N/A NE3         N/A
POIPU*           N/A     73 N/A N/A NW3         N/A
PRINCEVILLE*     N/A     73 N/A N/A S2          N/A
KOKOLE POINT*  NOT AVBL
MOLOAA DAIRY*    N/A     73  68  83 S1          N/A
WAIMEA HTS*    NOT AVBL
PUU OPAE*      NOT AVBL
PUU LUA*       NOT AVBL
MAKAHA RIDGE*    N/A    N/A N/A N/A N1          N/A
$$

HIZ005>011-090100-
OAHU-

CITY           SKY/WX    TMP DP  RH WIND       PRES   REMARKS
HONOLULU       LGT RAIN  73  72  94 CALM      29.89F
KALAELOA       LGT RAIN  75  72  88 CALM      29.90F
KANEOHE MCB    NOT AVBL
WHEELER FIELD  DRIZZLE   73  73  99 SE5       29.91F FOG
BELLOWS*         N/A    N/A N/A N/A W3          N/A
KAHUKU*          N/A    N/A N/A N/A E2          N/A
WHEELER*       NOT AVBL
WAIANAE HARBOR NOT AVBL
DILLINGHAM*      N/A     68  59  73 MISG        N/A
KAHUKU TRN*      N/A     72  70  94 W1          N/A
KAWAILOA*        N/A     72  70  94 SW1         N/A
KII*             N/A     75  73  94 SE3G10      N/A
MAKUA RANGE*     N/A     70  66  88 E3          N/A
OAHU FOREST NW NOT AVBL
SCHOFIELD BRK*   N/A     66  64  94 MISG        N/A
SCHOFIELD S*   NOT AVBL
WAIANAE VLY*   NOT AVBL
KUAOKALA*      NOT AVBL
HONOULIUULI*   NOT AVBL
MOKUOLOE IS*   NOT AVBL
PALEHUA*       NOT AVBL
WAIAWA PHB*    NOT AVBL
$$

HIZ012>013-090100-
MOLOKAI-

CITY           SKY/WX    TMP DP  RH WIND       PRES   REMARKS
MOLOKAI AIRPT  LGT RAIN  75  71  87 S5        29.92F
KALAUPAPA      NOT AVBL
MAKAPULAPAI*     N/A     75  73  94 W3          N/A
MOLOKAI 1*     NOT AVBL
PUU ALII*        N/A     63  62  98 CALM        N/A
$$

HIZ016-090100-
KAHOOLAWE-

CITY           SKY/WX    TMP DP  RH WIND       PRES   REMARKS
KAHOOLAWE*       N/A     68 N/A N/A W1          N/A
HAKIOAWA*        N/A     70  69  96 MISG      30.32F
HONOKANAIA*      N/A     76  71  85 S3        29.86F
KANELOA*         N/A     72  70  94 W6        29.98
KEALIALALO*    NOT AVBL
LUA MAKIKA*    NOT AVBL
$$

HIZ014>015-090100-
LANAI-

CITY           SKY/WX    TMP DP  RH WIND       PRES   REMARKS
LANAI CITY     LGT RAIN  70  68  94 SW6       29.95F
LANAI 1*       NOT AVBL
$$

HIZ017>028-090100-
MAUI-

CITY           SKY/WX    TMP DP  RH WIND       PRES   REMARKS
KAHULUI        LGT RAIN  75  72  90 CALM      29.90S
KAPALUA-W MAUI LGT RAIN  73  72  94 VRB3      29.92F
HANA AIRPORT   PTSUNNY   75  72  88 NW3       29.92S
HANA*            N/A     77 N/A N/A NW5         N/A
HALEAKALA SUMM   N/A     45  45 100 SE25        N/A
MAALAEA BAY*     N/A     73 N/A N/A SW5         N/A
HALEAKALA*     NOT AVBL
KAUPO GAP*     NOT AVBL
KULA 1*          N/A     56  55  98 VRB1        N/A
$$

HIZ023>026-090100-
BIG ISLAND OF HAWAII COAST AND LOWER SLOPES-

CITY           SKY/WX    TMP DP  RH WIND       PRES   REMARKS
KAILUA KONA    CLOUDY    78  70  76 N13       29.87F
HILO           CLOUDY    79  68  69 SE15      29.88F
HONOKAA*         N/A     73 N/A N/A VRB1        N/A
KAWAIHAE MWT*    N/A     73 N/A N/A N7          N/A
KAWAIHAE*        N/A     73 N/A N/A NE5       29.90F
SOUTH POINT*     N/A     73 N/A N/A N14G20      N/A
UPOLU AIRPORT* NOT AVBL
KAMUELA*       CLOUDY    66  64  94 W7        29.99F VSB 1/2
HAKALAU*         N/A     68  53  58 SE2         N/A
KALOKO-HONOKO*   N/A     77  72  83 N6G13     29.87F
PALI 2*          N/A     66  63  88 NW8         N/A
KEALAKOMO*       N/A     81  68  65 E6          N/A
KAUPULEHU*     NOT AVBL
KAPAPALA*      NOT AVBL
LOWER KAHUKU*    N/A     63  63 100 E2G8        N/A
PUHE CS*         N/A     73  68  83 N3G10       N/A
PUHO CS*         N/A     80  69  70 W3G9        N/A
PTA KEAMUKU*     N/A     64  63  94 CALM        N/A
WAIKOLOA*      NOT AVBL
$$

HIZ027>028-090100-
BIG ISLAND OF HAWAII INTERIOR AND SUMMMITS-

CITY           SKY/WX    TMP DP  RH WIND       PRES   REMARKS
BRADSHAW FIELD CLOUDY    61  57  88 W6        30.20F
MK VISITOR CEN   N/A     52  41  66 SE8         N/A
MAUNA KEA*       N/A     36  34  93 S10         N/A  WCI  28
MAUNA LOA*       N/A     50  37  62 MISG        N/A
MAUNA LOA 1*   NOT AVBL
PTA KIPUKA*      N/A     70  68  94 NW3G9       N/A
PTA RANGE 17*    N/A    N/A N/A N/A W5          N/A
PTA WEST*        N/A     72  70  94 NW3         N/A
NENE CABIN*      N/A     57  48  72 E6G12       N/A
AHUMOA*        NOT AVBL
PTA PORTABLE*  NOT AVBL
PUU MALI*        N/A     55  55 100 W3          N/A
$$

HIC003-090100-
NORTHWEST ISLANDS-

CITY           SKY/WX    TMP DP  RH WIND       PRES   REMARKS
MIDWAY ISLAND  SUNNY     73  55  53 NE3       30.01F
MIDWAY NOS*      N/A     73 N/A N/A MISG      29.98F
FRENCH FRIGATE NOT AVBL
$$

PHZ110>124-180-090100-
BUOY REPORTS

STATION/POSITION TIME  TEMP    WIND        PRES    WAVE   SWELL
                       AIR SEA DIR/SP/G            HT/PER HT/DIR
                 (UTC) (F)     (DEG/KT/KT) (MB)    (FT/S) (FT/D)
BUOY 51001       0010   76 78  170/  8/ 14 1011.1
BUOY 51101       2350   77 78  200/  2/  6 1011.8F   6/12   7/330
BUOY 51100       NOT AVBL
BUOY 51002       0010   78 78  110/ 12/ 14 1010.8
BUOY 51003       2350   75 79  110/ 16/ 17 1010.2F   7/ 6   5/300
BUOY 51004       2350   76 79   80/ 12/ 14 1012.0F   6/14   5/340
BARBERS PT BUOY  NOT AVBL
WAIMEA BAY BUOY  NOT AVBL
KAILUA BAY BUOY  2334      78                N/A     5/12   3/ 10
LANAI BUOY       0015      78                N/A     3/14   2/290
BARBERS PT 2     0009      78                N/A     4/14   2/300
PAUWELA MAUI     2339      77                N/A     5/14   3/330
HILO             0012      78                N/A     6/13   3/ 10
KANEOHE BAY BUOY 0006      77                N/A     4/12   3/ 20
HANALEI KAUAI    2322      77                N/A     5/13   3/350
KAHULUI HARBOR   0000   74 78  340/  6/  8 1012.4
HONOLULU HARBOR  0000   75 78  200/  2/  3 1012.9
KILO NALU        NOT AVBL
HILO HARBOR      0000   83 76  140/  8/ 16 1011.6
MOKUOLOE         2336   75     200/  1/  2   N/A
NAWILIWILI       0000   72 80   60/  2/  4 1012.2
WHOTS BUOY       NOT AVBL
BUOY 51028       NOT AVBL
$$

......................KEY........................................
  SKY/WX - SKY CONDITIONS/PRESENT WEATHER
  TMP    - TEMPERATURE IN FAHRENHEIT
  DWPT   - DEWPOINT IN FAHRENHEIT
  RH     - RELATIVE HUMIDITY IN PERCENT
  WIND   - DIRECTION AND SPEED /MPH FOR ISLANDS...KTS FOR BUOYS/
  PRES   - MEAN SEA LEVEL PRESSURE IN INCHES OF HG
  VSB    - VISIBILITY IN MILES
  HX     - HEAT INDEX
  WCI    - WIND CHILL INDEX
  VRB    - VARIABLE WIND DIRECTION
  N/A    - NOT AVAILABLE



USA.gov is the U.S. government's official web portal to all federal, state and local government web resources and services.